STARLINK-36585, 67540

Orbit data source: Space-Track

STARLINK-36585, 67540 is a payload satellite owned by SpaceX/Seattle (US) in SSO that was launched on Thu, 22 Jan 2026 UTC via an FALCON 9 launch vehicle from the Air Force Western Test Range (AFWTR). Payload-class satellites include a variety of spacecraft equipped with specific instruments for various scientific and technological missions. These include communications satellites like Starlink; space stations such as the ISS; scientific satellites like the Hubble; Earth observation satellites from companies like Planet Labs, Umbra, and HawkEye 360; GPS; miniature CubeSats for education and research; and military/defense satellites.

Loading next visibility...
Identifier
67540, 2026-014J
Orbit
SSO
Country
Flag of USUS
Related business
Manufacturer
SpaceX/Seattle
Mission
Operational Commercial Communications
Bus & Motor
STARLINK V2MO, Unknown motor
Mass
575 kg wet, ~530 kg dry
Launch date (UTC)
2026-01-22 (5 months ago)
Launch vehicle
FALCON 9
Launch site
Air Force Western Test Range (AFWTR)
Object type
Payload
Rocket body
Debris
Shape & HBR
Box + 2 Pan, 17.7 m
Radar Cross Section
36.964 m², Large (>1 m²)

Expand to show TLE details & history
Last TLE update: 14 hours ago

TLE from 14 hours ago
0 STARLINK-36585
1 67540U 26014J   26171.26238084  .00016434  00000-0  50988-3 0  9996
2 67540  97.2866  57.9425 0000882  91.1474 268.9870 15.33468904 24502
Epoch: 2026-06-20T06:17Z
TLE epoch observation values (Epoch: 2026-06-20T06:17:49.704Z)
Latitude
-0.00001°
Longitude
55.00587°
Altitude
468.595 km
Speed
7.632 km/s
True Right ascension
03h 51m 46s
True Declination
0° 00' 00"
Sunlit
Object was in daylight at epoch
Visualization orbit readout
Latitude
Unknown
Longitude
Unknown
Altitude
Unknown
Speed
Unknown
Apparent Right ascension
Unknown
Apparent Declination
Unknown
Sunlit
N/A
Visualization observer readout
Local Sidereal Time
07:24:09
Azimuth
Unknown
Elevation
Unknown
Doppler factor
Unknown
Orbital elements
Apogee altitude
463.018 km
Perigee altitude
461.812 km
Semi-major axis
6,840.552 km
Eccentricity
0.00009
Inclination
97.2866°
RAAN
57.9425°
Arg. of periapsis
91.1474°
True anomaly
268.97689°
Mean anomaly
268.987°
Eccentric anomaly
268.98195°
Mean motion
3.83625 °/min
Orbital period
93.84 mins
BSTAR
0.00050988
Loading maneuver chart data...
Computing Atmospheric mass density...
Loading historical data...
Loading historical data...
Loading historical data...
Loading historical data...
Loading historical data...
Loading historical data...
Loading historical data...

Documentation

Showing up to 5 results
|